Hourly Data Report for December 22, 2003

SHERBROOKE A
QUEBEC

45°26'00.000" N
71°41'00.000" W
241.40 m
7028124
71610
YSC

Download Data

Hourly Data (December 2003)
Hourly Data Report for December 22, 2003
TIME
LST
Temp Definition
°C
Dew Point Definition
°C
Rel Hum Definition
%
Precip. Amount Definition
mm

Wind Dir Definition
10's deg

Wind Spd Definition
km/h
Visibility Definition
km
Stn Press Definition
kPa
Hmdx Definition


Wind Chill Definition


Weather Definition


00:00 -2.0 -4.3 84   21 4 15.0 98.29   -3  
01:00 -2.0 -4.2 85   21 4 15.0 98.31   -3  
02:00 -2.0 -4.2 85   21 4 15.0 98.35   -3  
03:00 -1.9 -4.1 85   21 4 15.0 98.30   -3  
04:00 -1.7 -4.1 84     0 15.0 98.25      
05:00 -1.6 -4.1 83     0 15.0 98.26      
06:00 -2.0 -4.0 86   5 4 15.0 98.27   -3  
07:00 -2.2 -4.1 87   7 4 15.0 98.29   -4  
08:00 -1.5 -3.9 84   18 4 19.3 98.31   -3 Cloudy
09:00 -0.7 -4.1 78   20 6 24.1 98.32   -3 Mostly Cloudy
10:00 -0.2 -4.0 76   20 9 24.1 98.31   -3 Cloudy
11:00 0.1 -3.8 75   20 7 24.1 98.25     Cloudy
12:00 0.3 -3.7 74   20 9 24.1 98.22     Cloudy
13:00 0.6 -3.5 74   21 6 24.1 98.18     Cloudy
14:00 0.7 -3.2 75   22 7 24.1 98.24     Cloudy
15:00 0.9 -2.8 76   23 4 24.1 98.24     Cloudy
16:00 0.9 -2.7 77   22 6 24.1 98.30     Cloudy
17:00 1.0 -2.5 77   23 7 24.1 98.35     Cloudy
18:00 1.3 -2.2 77   21 7 15.0 98.38      
19:00 1.3 -2.2 77   21 7 15.0 98.43      
20:00 1.5 -2.1 77   22 7 15.0 98.43      
21:00 1.7 -2.2 75   24 6 15.0 98.44      
22:00 1.4 -1.9 79   23 6 15.0 98.48      
23:00 1.7 -1.7 78   23 7 15.0 98.52      

Notes on Data Quality.

Legend

  • E = Estimated
  • M = Missing
  • NA = Not Available*
  • [empty] = Indicates an unobserved value
Date modified: